This is the latest recevied weather packets stored in our database for station/object WA4TPR. If no packets are shown the sender has not sent any weather packets the latest 10 day(s).
| Time | Temp. | Humidity | Pressure | Rain* | Wind** | Luminosity | Snow |
|---|---|---|---|---|---|---|---|
| 1777666403 | 33.33° C | 46% | 1013.8 hPa | 0 mm | - | 672 W/m² | - |
| 1777666099 | 32.78° C | 46% | 1013.9 hPa | 0 mm | - | 640 W/m² | - |
| 1777665796 | 32.78° C | 46% | 1014.1 hPa | 0 mm | - | 669 W/m² | - |
| 1777665494 | 32.78° C | 48% | 1014.1 hPa | 0 mm | - | 674 W/m² | - |
| 1777665190 | 32.78° C | 47% | 1014.1 hPa | 0 mm | - | 678 W/m² | - |
| 1777664886 | 33.33° C | 46% | 1014.4 hPa | 0 mm | - | 249 W/m² | - |
| 1777664582 | 32.78° C | 47% | 1014.5 hPa | 0 mm | - | 758 W/m² | - |
| 1777664278 | 32.78° C | 46% | 1014.6 hPa | 0 mm | - | 737 W/m² | - |
| 1777663977 | 32.78° C | 47% | 1014.4 hPa | 0 mm | - | 752 W/m² | - |
| 1777663674 | 32.22° C | 48% | 1014.7 hPa | 0 mm | - | 517 W/m² | - |
| 1777663370 | 32.22° C | 48% | 1014.8 hPa | 0 mm | - | 803 W/m² | - |
| 1777663068 | 32.22° C | 48% | 1014.7 hPa | 0 mm | - | 286 W/m² | - |
| 1777662765 | 33.33° C | 47% | 1015 hPa | 0 mm | - | 575 W/m² | - |
| 1777662462 | 32.78° C | 48% | 1014.8 hPa | 0 mm | - | 790 W/m² | - |
| 1777662157 | 31.67° C | 50% | 1015.1 hPa | 0 mm | - | 827 W/m² | - |
| 1777661853 | 32.22° C | 50% | 1015.4 hPa | 0 mm | - | 237 W/m² | - |
| 1777661549 | 31.67° C | 50% | 1014.9 hPa | 0 mm | - | 810 W/m² | - |
| 1777661246 | 31.67° C | 50% | 1015 hPa | 0 mm | - | 796 W/m² | - |
| 1777660941 | 31.67° C | 49% | 1015.3 hPa | 0 mm | - | 810 W/m² | - |
| 1777660637 | 32.22° C | 49% | 1015.4 hPa | 0 mm | - | 810 W/m² | - |
| 1777660335 | 32.22° C | 49% | 1015.3 hPa | 0 mm | - | 818 W/m² | - |
| 1777660031 | 32.78° C | 49% | 1015.5 hPa | 0 mm | - | 857 W/m² | - |
| 1777659728 | 32.22° C | 51% | 1015.5 hPa | 0 mm | - | 885 W/m² | - |
| 1777659424 | 31.67° C | 51% | 1015.6 hPa | 0 mm | - | 895 W/m² | - |
| 1777659122 | 32.22° C | 51% | 1015.7 hPa | 0 mm | - | 886 W/m² | - |
* Rain latest hour (hover to see other rain measurements)
** Current wind speed in m/s (hover to see current wind gust speed)